Погода Пировское

Погода Пировское : погода сейчас, прогноз погоды и архив. Всё, что Вы хотите узнать о погоде Пировское!

Поиск расширенной информации на нашем сайте:

Другие новости

Новости СМИ2

Главная страница сайта

Новости сайта

03.07.2017

Напоминаем, что на нашем специализированном сайте Метеоцентр.Азия вы можете получить высокодетализированные автоматические прогнозы погоды по пунктам России, СНГ и мира в авиационном формате (включающие направление и скорость ветра, видимость, явления погоды, количество и форму облачности, нижнюю и верхнюю границу облачности).


Погода Пировское - сегодня

Время (UTC), дата Ветер
(°,м/с) 
Видим.   Явления Облачность Т
(°С)
Тd
(°С)
f(%) Тe
(°С)
Pmin
(гПа)
dP
(гПа)
Po
(мм)
O2
(г/м3)
Тmin Tmax R s Состояние
почвы
00 21.02.18 260 (З) 2-3  н/о    н/о 
-11.5 -13 89 -13  1025.4  -0.4  751  317  -12.9    62  равномерный
сухой снег
100% 
03 21.02.18 260 (З) н/о    н/о 
-11.4 -13.2 86 -13  1025.3  0.1  751  317           
06 21.02.18 260 (З) н/о    н/о 
-8.6 -12.2 75 -11  1024.8  -0.2  751  314           
09 21.02.18 300 (СЗ) н/о    н/о 
-8.2 -10.8 81 -10  1024.7  751  313           
12 21.02.18 300 (СЗ) 1-1  н/о    н/о 
-11.2 -12.7 89 -11  1025.1  0.1  751  317    -8.1     
15 21.02.18 тихо ()   н/о    н/о 
-15.7 -17.4 87 -16  1025.4  -0.2  751  322           
18 21.02.18 тихо ()   н/о    н/о 
-19.8 -21.9 83 -20  1025.5  -0.3  751  328           
21 21.02.18 тихо ()   н/о    н/о 
-25.3 -27.9 79 -25  1026.1  751  335           
00 22.02.18 тихо () -0  н/о    н/о 
-27.3 -29.9 79 -27  1026  0.1  751  338  -28    0.3  63  равномерный
сухой снег
100% 
03 22.02.18 тихо ()   н/о    н/о 
-24.6 -27.2 79 -25  1025.4  -0.4  750  334  -28.3         
06 22.02.18 120 (ЮВ) н/о    н/о 
-13.1 -15 86 -13  1023.2  -1.1  749  319           
09 22.02.18 110 (В) н/о    н/о 
-10.9 -15.7 68 -13  1021.6  -1.4  748  315           
12 22.02.18 080 (В) 2-4  н/о    н/о 
-13.9 -16.8 79 -16  1020.4  -1.4  747  319    -10.9       
15 22.02.18 090 (В) н/о    н/о 
-14.5 -16.6 84 -15  1018.8  -1.6  746  319           
18 22.02.18 100 (В) н/о    н/о 
-13.8 -15.8 85 -16  1017  -1.7  745  317           
21 22.02.18 100 (В) н/о    н/о 
-13.4 -15.3 86 -13  1016.1  -0.9  744  317           
00 23.02.18 тихо () -0  н/о    н/о 
-13.4 -15.1 87 -13  1016.4  0.4  745  317  -15.3    64  равномерный
сухой снег
100% 
03 23.02.18 250 (З) 6-10{10}  н/о    н/о 
-8.4 -11.2 80 -13  1017.4  1.4  746  311           
06 23.02.18 250 (З) 4{11}  н/о    н/о 
-8.2 -11.8 75 -12  1018.7  1.3  747  311           
09 23.02.18 240 (ЮЗ) 5{10}  н/о    н/о 
-8.2 -12.8 69 -13  1019.6  0.8  747  312           
12 23.02.18 210 (ЮЗ) 2-2  н/о    н/о 
-11.1 -14 79 -13  1020  0.2  747  315    -7.8  0.5     
15 23.02.18 230 (ЮЗ) н/о    н/о 
-9.8 -11.6 87 -12  1019.2  -0.7  747  313           
18 23.02.18 250 (З) н/о    н/о 
-10 -11.7 87 -12  1018.8  -0.4  746  313           
21 23.02.18 240 (ЮЗ) н/о    н/о 
-11.4 -12.6 91 -13  1018.7  -0.2  746  315           
00 24.02.18 240 (ЮЗ) 2-3  н/о    н/о 
-12.7 -14.1 89 -15  1019.5  0.7  747  317  -12.7    0.2  64  равномерный
сухой снег
100% 
Время (UTC), дата Ветер
(°,м/с) 
Видим.   Явления Облачность Т
(°С)
Тd
(°С)
f(%) Тe
(°С)
Pmin
(гПа)
dP
(гПа)
Po
(мм)
O2
(г/м3)
Тmin Tmax R s Состояние
почвы

Для получения пояснительной информации подведите курсор к названию столбца.

ПОГОДА Пировское - архив

Всё, что Вы хотите узнать о погоде Пировское - удобно и подробно!

Выберите нужную дату (начиная с 1 января 2015* года) и нажмите кнопку "Найти".
Будут отображены архивные сводки погоды по пункту Пировское, начиная с указанной даты.


Отображать данные в формате CSV (для использования в таблицах Excel)


Внимание! Наш архив погоды предназначен исключительно для личного некоммерческого использования в познавательных целях. Если Вам необходимы официальные справки о состоянии погоды (для производственных, юридических, коммерческих и т.п. целей), обращайтесь в органы Росгидромета.

*Примечание: данная дата относится к архиву по метеостанциям СССР (Россия, СНГ, Балтия).
Архив по метеостанциям Зарубежной Европы и Азии (кроме Китая) хранится 10 дней, по другим регионам земного шара (Китай, Африка, Америка, Австралия, Океания) - 1 день.

Пировское - район местоположения метеостанции


Название, широта, долгота, высота метеостанции:
Пировское 57.6°ш. 92.3°д. 179 м над ур. моря [Российская Федерация]

Дополнительная информация

В oтличие oт бoльшинства пoгoдных сайтoв мы публикуем пoдрoбную метеoинфoрмацию в детальнoм прoфессиoнальнoм фoрмате.

Характеристики температуры и влажнoсти вoздуха измеряются на высoте 2 м в тени вдали oт зданий и деревьев.
Скoрoсть ветра измеряется на высoте 10 м (на урoвне рoста челoвека скoрoсть ветра ниже в 1.5-2 раза). Если метеoстанция нахoдится в гoрoде или в лесу, тo скoрoсть ветра занижена на 2-4 м/с пo сравнению с oткрытым местoм. Скoрoсть ветра над акватoриями крупных рек и oзёр, а также на вершинах хoлмoв на 2-5 м/с выше, чем в oбычных услoвиях.
Атмoсфернoе давление в разных тoчках местнoсти мoжет значительнo oтличаться oт давления на метеoстанции, в зависимoсти oт услoвий рельефа (при пoдъёме на 10 м давление пoнижается примернo на 1 мм рт.ст.).